[[{"header":{"parameterUnit":"m.s-1","parameterCategory":2,"la1":30.2992,"la2":30.254,"lo1":-89.0895,"lo2":-89.0443,"dy":0.0025,"dx":0.0025,"nx":19,"ny":19,"refTime":"2026-05-13T03:00:00:Z","depth":"0","parameterNumber":2,"parameterNumberName":"U-component_of_CURRENTS"},"data":[0,0,0,-0.1319,-0.1318,-0.1302,-0.1302,-0.1279,-0.1279,0,0,0,0,0,0,0,0,0,0,0,-0.1318,-0.1318,-0.1319,-0.1318,-0.1302,-0.1302,-0.1279,-0.1279,0,0,0,0,0,0,0,0,0,0,0,-0.1318,-0.1318,-0.1318,-0.1318,-0.1302,-0.1302,-0.1279,-0.1292,0,0,0,0,0,0,0,0,0,0,-0.1308,-0.1307,-0.1318,-0.1318,-0.1318,-0.1302,-0.1302,-0.1293,-0.1291,-0.1285,0,-0.1276,0,-0.1279,-0.1277,-0.1277,0,0,0,-0.1319,-0.1308,-0.1305,-0.1318,-0.1318,-0.1302,-0.131,-0.1292,-0.129,-0.1283,-0.1276,-0.1276,-0.1279,-0.1277,-0.1277,-0.1269,-0.1269,0,0,-0.132,-0.1316,-0.1306,-0.1304,-0.1306,-0.131,-0.1309,-0.1291,-0.1285,-0.1276,-0.1275,-0.1278,-0.1277,-0.1276,-0.1269,-0.1269,0,0,0,-0.1322,-0.1316,-0.1314,-0.1305,-0.1303,-0.131,-0.1309,-0.1286,-0.1285,-0.1275,-0.1278,-0.1276,-0.1276,-0.1268,-0.1269,-0.1269,0,0,0,-0.1323,-0.1317,-0.1314,-0.1311,-0.1303,-0.1295,-0.1304,-0.1286,-0.1284,-0.1278,-0.1276,-0.1276,-0.1268,-0.1268,-0.1269,-0.1275,0,0,0,-0.1321,-0.1317,-0.1313,-0.1311,-0.1305,-0.1295,-0.1293,-0.1286,-0.1286,-0.1277,-0.1276,-0.1268,-0.1268,-0.1268,-0.1274,-0.1276,0,0,0,-0.132,-0.1305,-0.1313,-0.1302,-0.1305,-0.1301,-0.1293,-0.1288,-0.1281,-0.1276,-0.1268,-0.1269,-0.1268,-0.1274,-0.1275,-0.125,-0.1249,0,0,-0.1303,-0.1303,-0.1299,-0.1306,-0.1304,-0.1304,-0.1302,-0.1288,-0.1283,-0.1274,-0.1274,-0.1269,-0.1274,-0.1275,-0.1264,-0.1263,0,0,0,-0.1295,-0.1289,-0.129,-0.1291,-0.1296,-0.13,-0.1292,-0.129,-0.1282,-0.128,-0.1274,-0.1277,-0.1278,-0.1262,-0.1261,-0.1254,-0.127,-0.127,-0.127,-0.1258,-0.1272,-0.1267,-0.1281,-0.1286,-0.1296,-0.1297,-0.1293,-0.1284,-0.1284,-0.1281,-0.1288,-0.1271,-0.127,-0.1263,-0.1282,-0.1282,-0.1282,-0.1282,-0.1229,-0.1224,-0.1253,-0.1252,-0.1273,-0.1275,-0.1294,-0.1293,-0.1294,-0.1288,-0.1288,-0.1268,-0.1269,-0.1262,-0.1282,-0.1282,-0.1282,-0.1282,-0.1282,-0.1195,-0.1195,-0.1204,-0.1219,-0.1237,-0.1263,-0.1283,-0.1293,-0.1296,-0.1299,-0.1278,-0.1278,-0.1269,-0.1295,-0.1295,-0.1295,-0.1295,-0.1295,-0.1295,-0.1152,-0.1165,-0.1162,-0.1185,-0.1202,-0.123,-0.1273,-0.1291,-0.1295,-0.1283,-0.1283,-0.127,-0.1292,-0.1288,-0.1296,-0.1296,-0.1296,-0.1296,-0.1296,-0.1097,-0.1109,-0.1105,-0.1119,-0.1161,-0.117,-0.1238,-0.126,-0.128,-0.1273,-0.1252,-0.1272,-0.127,-0.1271,-0.1266,-0.1268,-0.1268,-0.1268,-0.1268,-0.1055,-0.1062,-0.1044,-0.1058,-0.1091,-0.1136,-0.1147,-0.1199,-0.1227,-0.1226,-0.1238,-0.1226,-0.1227,-0.1223,-0.1224,-0.1219,-0.1208,-0.1208,-0.1208,-0.1014,-0.102,-0.0981,-0.0998,-0.1043,-0.108,-0.1069,-0.1097,-0.1163,-0.1207,-0.1234,-0.1237,-0.122,-0.1223,-0.1217,-0.1219,-0.1211,0,0]},{"header":{"parameterUnit":"m.s-1","parameterCategory":2,"la1":30.2992,"la2":30.254,"lo1":-89.0895,"lo2":-89.0443,"dy":0.0025,"dx":0.0025,"nx":19,"ny":19,"refTime":"2026-05-13T03:00:00:Z","depth":"0","parameterNumber":3,"parameterNumberName":"V-component_of_CURRENTS"},"data":[0,0,0,-0.0669,-0.0668,-0.0641,-0.0641,-0.0631,-0.0631,0,0,0,0,0,0,0,0,0,0,0,-0.0682,-0.0681,-0.0669,-0.0668,-0.0641,-0.0641,-0.0631,-0.0631,0,0,0,0,0,0,0,0,0,0,0,-0.0682,-0.0682,-0.0681,-0.0668,-0.0641,-0.0641,-0.0631,-0.0646,0,0,0,0,0,0,0,0,0,0,-0.0669,-0.0671,-0.0682,-0.0681,-0.0668,-0.0641,-0.0641,-0.0646,-0.0645,-0.0649,0,-0.0644,0,-0.0634,-0.063,-0.063,0,0,0,-0.0671,-0.0672,-0.0669,-0.0681,-0.0667,-0.0641,-0.0654,-0.0645,-0.0644,-0.0647,-0.0644,-0.0643,-0.0634,-0.063,-0.063,-0.0634,-0.0634,0,0,-0.0672,-0.0673,-0.067,-0.0668,-0.066,-0.0655,-0.0653,-0.0644,-0.064,-0.0644,-0.0643,-0.0634,-0.063,-0.063,-0.0634,-0.0634,0,0,0,-0.0675,-0.0674,-0.0671,-0.0669,-0.0661,-0.0654,-0.0652,-0.0641,-0.0641,-0.0642,-0.0634,-0.063,-0.063,-0.0633,-0.0634,-0.0659,0,0,0,-0.0676,-0.0675,-0.0671,-0.0671,-0.0661,-0.0645,-0.0649,-0.0641,-0.064,-0.0634,-0.063,-0.063,-0.0633,-0.0633,-0.0658,-0.066,0,0,0,-0.0683,-0.0676,-0.0674,-0.0671,-0.0658,-0.0645,-0.0644,-0.0641,-0.0635,-0.063,-0.063,-0.0633,-0.0633,-0.0658,-0.0659,-0.0671,0,0,0,-0.0684,-0.0673,-0.0673,-0.0662,-0.0658,-0.0654,-0.0644,-0.0635,-0.0631,-0.063,-0.0633,-0.0634,-0.0657,-0.0659,-0.067,-0.0788,-0.0801,0,0,-0.0671,-0.0671,-0.0666,-0.0666,-0.0669,-0.0658,-0.0663,-0.065,-0.0637,-0.0638,-0.0638,-0.0659,-0.0659,-0.0671,-0.0799,-0.0812,0,0,0,-0.0663,-0.0666,-0.0665,-0.0667,-0.0663,-0.0671,-0.066,-0.0657,-0.0652,-0.0634,-0.0655,-0.0655,-0.0661,-0.0731,-0.0741,-0.0753,-0.0634,-0.0634,-0.0634,-0.0649,-0.0659,-0.0669,-0.0685,-0.0684,-0.0681,-0.0682,-0.0677,-0.0668,-0.0668,-0.0674,-0.0696,-0.0771,-0.078,-0.0791,-0.0676,-0.0676,-0.0676,-0.0676,-0.0663,-0.0678,-0.0695,-0.0713,-0.0721,-0.0726,-0.0716,-0.0706,-0.0706,-0.0692,-0.0698,-0.0752,-0.0793,-0.08,-0.0678,-0.0678,-0.0677,-0.0677,-0.0677,-0.0679,-0.0688,-0.0709,-0.0748,-0.0764,-0.0762,-0.0783,-0.0754,-0.0725,-0.0727,-0.0802,-0.0803,-0.0811,-0.0734,-0.0734,-0.0734,-0.0734,-0.0734,-0.0734,-0.0683,-0.0706,-0.0749,-0.0785,-0.0814,-0.0834,-0.0823,-0.0831,-0.0841,-0.0833,-0.0834,-0.0831,-0.0713,-0.0712,-0.0735,-0.0735,-0.0735,-0.0735,-0.0735,-0.0681,-0.0708,-0.0774,-0.0818,-0.0895,-0.096,-0.0946,-0.1001,-0.0988,-0.1018,-0.0983,-0.0893,-0.0894,-0.0887,-0.089,-0.0958,-0.0958,-0.0958,-0.0958,-0.0678,-0.0697,-0.0793,-0.0874,-0.096,-0.1014,-0.1141,-0.1197,-0.1176,-0.1174,-0.1079,-0.11,-0.109,-0.1101,-0.1089,-0.1096,-0.1214,-0.1214,-0.1214,-0.0669,-0.071,-0.0771,-0.0874,-0.0987,-0.109,-0.1231,-0.1313,-0.1302,-0.1218,-0.1069,-0.1058,-0.1078,-0.1062,-0.1069,-0.1052,-0.1058,0,0]}],[{"header":{"parameterUnit":"m.s-1","parameterCategory":2,"la1":30.2992,"la2":30.254,"lo1":-89.0895,"lo2":-89.0443,"dy":0.0025,"dx":0.0025,"nx":19,"ny":19,"refTime":"2026-05-13T03:00:00:Z","depth":"2","parameterNumber":2,"parameterNumberName":"U-component_of_CURRENTS"},"data":[0,0,0,-0.1507,-0.1506,-0.1495,-0.1494,-0.1477,-0.1477,0,0,0,0,0,0,0,0,0,0,0,-0.1504,-0.1503,-0.1507,-0.1506,-0.1495,-0.1494,-0.1477,-0.1477,0,0,0,0,0,0,0,0,0,0,0,-0.1504,-0.1504,-0.1503,-0.1506,-0.1495,-0.1494,-0.1477,-0.1487,0,0,0,0,0,0,0,0,0,0,-0.1499,-0.1493,-0.1504,-0.1503,-0.1506,-0.1495,-0.1494,-0.1488,-0.1486,-0.1481,0,-0.1471,0,-0.1475,-0.1475,-0.1475,0,0,0,-0.1509,-0.1494,-0.1494,-0.1503,-0.1506,-0.1495,-0.1501,-0.1487,-0.1486,-0.1479,-0.147,-0.147,-0.1474,-0.1475,-0.1475,-0.1477,-0.1478,0,0,-0.1509,-0.1501,-0.1495,-0.1493,-0.1492,-0.1501,-0.15,-0.1486,-0.1478,-0.147,-0.147,-0.1474,-0.1475,-0.1475,-0.1477,-0.1478,0,0,0,-0.151,-0.1501,-0.1501,-0.1493,-0.1492,-0.15,-0.15,-0.1479,-0.1479,-0.147,-0.1474,-0.1475,-0.1474,-0.1477,-0.1477,-0.1465,0,0,0,-0.151,-0.1501,-0.1501,-0.1496,-0.1492,-0.1485,-0.1492,-0.148,-0.1479,-0.1474,-0.1475,-0.1474,-0.1477,-0.1477,-0.1465,-0.1477,0,0,0,-0.1506,-0.1501,-0.1497,-0.1496,-0.1491,-0.1486,-0.1485,-0.148,-0.1481,-0.1475,-0.1474,-0.1477,-0.1477,-0.1465,-0.1476,-0.1386,0,0,0,-0.1502,-0.149,-0.1496,-0.1491,-0.1491,-0.1496,-0.1486,-0.1487,-0.1483,-0.1475,-0.1477,-0.1477,-0.1465,-0.1476,-0.1387,-0.1242,-0.1225,0,0,-0.1488,-0.1488,-0.1489,-0.1495,-0.1499,-0.1499,-0.1499,-0.1489,-0.1489,-0.1481,-0.1481,-0.1465,-0.1476,-0.1386,-0.1269,-0.1251,0,0,0,-0.1486,-0.1484,-0.1488,-0.1491,-0.1498,-0.15,-0.1493,-0.1491,-0.1485,-0.1488,-0.1478,-0.1486,-0.1428,-0.1345,-0.1331,-0.148,-0.1479,-0.1479,-0.1479,-0.1458,-0.1474,-0.1476,-0.1491,-0.1494,-0.1499,-0.1495,-0.1492,-0.1488,-0.1489,-0.1485,-0.1427,-0.134,-0.1327,-0.1486,-0.1486,-0.1486,-0.1486,-0.1486,-0.1453,-0.1453,-0.1474,-0.1479,-0.1487,-0.1487,-0.1492,-0.1487,-0.1456,-0.149,-0.1432,-0.135,-0.131,-0.1485,-0.1485,-0.1486,-0.1486,-0.1486,-0.1486,-0.1437,-0.1436,-0.1444,-0.1457,-0.1464,-0.1479,-0.1429,-0.1454,-0.1445,-0.1421,-0.1264,-0.1263,-0.1384,-0.1361,-0.1361,-0.136,-0.136,-0.136,-0.136,-0.1408,-0.1418,-0.1403,-0.1436,-0.1412,-0.1403,-0.1391,-0.1321,-0.1244,-0.1248,-0.1245,-0.1383,-0.1388,-0.1376,-0.1354,-0.1355,-0.1356,-0.1357,-0.1357,-0.1361,-0.1369,-0.1341,-0.1312,-0.1278,-0.1207,-0.1197,-0.1052,-0.0999,-0.0928,-0.1114,-0.1122,-0.1097,-0.1108,-0.109,-0.0995,-0.0995,-0.0995,-0.0995,-0.1315,-0.1329,-0.1243,-0.1177,-0.1105,-0.1098,-0.0907,-0.0843,-0.0836,-0.0843,-0.085,-0.0865,-0.0882,-0.0848,-0.0865,-0.0844,-0.0685,-0.0684,-0.0684,-0.1266,-0.1245,-0.1153,-0.1116,-0.1014,-0.0943,-0.0819,-0.0762,-0.0678,-0.068,-0.0878,-0.0958,-0.1001,-0.1019,-0.0987,-0.1007,-0.098,0,0]},{"header":{"parameterUnit":"m.s-1","parameterCategory":2,"la1":30.2992,"la2":30.254,"lo1":-89.0895,"lo2":-89.0443,"dy":0.0025,"dx":0.0025,"nx":19,"ny":19,"refTime":"2026-05-13T03:00:00:Z","depth":"2","parameterNumber":3,"parameterNumberName":"V-component_of_CURRENTS"},"data":[0,0,0,0.0045,0.0046,0.0129,0.0129,0.0204,0.0204,0,0,0,0,0,0,0,0,0,0,0,-0.0002,-0.0003,0.0044,0.0046,0.0129,0.0129,0.0204,0.0204,0,0,0,0,0,0,0,0,0,0,0,-0.0002,-0.0003,-0.0003,0.0046,0.0128,0.0129,0.0203,0.0153,0,0,0,0,0,0,0,0,0,0,0.0079,0.0029,-0.0002,-0.0003,0.0046,0.0128,0.0129,0.0151,0.0156,0.0151,0,0.0138,0,0.0171,0.0206,0.0207,0,0,0,0.0064,0.0025,0.005,-0.0003,0.0047,0.0128,0.0096,0.0154,0.016,0.0158,0.0139,0.0143,0.0172,0.0207,0.0207,0.0128,0.0127,0,0,0.006,0.0018,0.0046,0.0052,0.0033,0.0094,0.0099,0.0158,0.0146,0.014,0.0145,0.0174,0.0207,0.0207,0.0129,0.0128,0,0,0,0.0034,0.0014,0.0039,0.0048,0.0065,0.0096,0.0102,0.0144,0.0152,0.0146,0.0174,0.0207,0.0208,0.013,0.0129,0.0075,0,0,0,0.0032,-0.0001,0.0036,0.0014,0.0063,0.0109,0.0085,0.0147,0.0156,0.0174,0.0207,0.0208,0.0132,0.0129,0.0079,0.0095,0,0,0,0.0,-0.0003,-0.0004,0.0011,0.0042,0.011,0.0122,0.0151,0.0172,0.0207,0.0208,0.0132,0.013,0.0083,0.01,0.0178,0,0,0,-0.0028,-0.0047,-0.0006,-0.0023,0.004,0.0058,0.0122,0.0139,0.0159,0.0207,0.0131,0.0129,0.0084,0.0103,0.0179,0.0134,0.0126,0,0,-0.0061,-0.0053,-0.0059,-0.002,-0.0022,0.005,0.0043,0.0097,0.0114,0.0116,0.0115,0.0078,0.01,0.0178,-0.0025,-0.0027,0,0,0,-0.0074,-0.0088,-0.0082,-0.0076,-0.0044,-0.0008,0.0035,0.0049,0.0045,0.0111,0.0037,0.0053,0.0105,0.0077,0.0073,0.0116,0.0116,0.0116,0.0117,-0.0152,-0.013,-0.0147,-0.0124,-0.0114,-0.0063,-0.0036,-0.002,-0.0016,-0.0049,-0.0023,-0.0044,-0.0083,-0.0083,-0.0081,-0.0081,-0.0082,-0.0082,-0.0082,-0.0198,-0.0199,-0.019,-0.0205,-0.0171,-0.0179,-0.0117,-0.0104,-0.0076,-0.0105,-0.0052,-0.0021,-0.0089,-0.0087,-0.0086,-0.0085,-0.0085,-0.0085,-0.0084,-0.0231,-0.0227,-0.0252,-0.0261,-0.0257,-0.0221,-0.0154,-0.0124,-0.0108,-0.0085,-0.005,-0.005,0.0011,-0.0055,-0.0054,-0.0054,-0.0053,-0.0053,-0.0053,-0.0245,-0.0261,-0.028,-0.0295,-0.0283,-0.0241,-0.0161,-0.0111,-0.0073,-0.0084,-0.0084,-0.0031,-0.0032,0.0014,-0.0048,-0.0049,-0.0049,-0.005,-0.005,-0.025,-0.0268,-0.0273,-0.0274,-0.0238,-0.0187,-0.0119,-0.0081,-0.0022,-0.0021,-0.0053,-0.0054,-0.0008,-0.0008,0.0039,-0.0011,-0.0011,-0.0011,-0.0011,-0.0241,-0.0255,-0.0246,-0.0219,-0.0177,-0.0141,-0.0072,0.0054,0.0079,0.0177,0.017,0.0122,0.0113,0.0167,0.0164,0.0215,0.0211,0.0212,0.0213,-0.022,-0.022,-0.0203,-0.0205,-0.0156,-0.0114,-0.0052,0.0158,0.0357,0.0235,0.0347,-0.0023,-0.012,-0.0122,-0.0061,-0.0058,0.0015,0,0]}],[{"header":{"parameterUnit":"m.s-1","parameterCategory":2,"la1":30.2992,"la2":30.254,"lo1":-89.0895,"lo2":-89.0443,"dy":0.0025,"dx":0.0025,"nx":19,"ny":19,"refTime":"2026-05-13T03:00:00:Z","depth":"4","parameterNumber":2,"parameterNumberName":"U-component_of_CURRENTS"},"data":[0,0,0,-0.0527,-0.0529,-0.0634,-0.0635,-0.0898,-0.09,0,0,0,0,0,0,0,0,0,0,0,-0.0501,-0.0502,-0.0527,-0.0529,-0.0634,-0.0635,-0.0898,-0.09,0,0,0,0,0,0,0,0,0,0,0,-0.0501,-0.0501,-0.0502,-0.0529,-0.0634,-0.0635,-0.0897,-0.0794,0,0,0,0,0,0,0,0,0,0,-0.0679,-0.0635,-0.0501,-0.0502,-0.0529,-0.0634,-0.0635,-0.0788,-0.08,-0.0876,0,-0.0874,0,-0.0877,-0.0918,-0.0918,0,0,0,-0.0564,-0.0624,-0.0634,-0.0502,-0.053,-0.0633,-0.0596,-0.0794,-0.0808,-0.0893,-0.0878,-0.0886,-0.0881,-0.0919,-0.0921,-0.1101,-0.1101,0,0,-0.0558,-0.055,-0.0623,-0.0641,-0.0537,-0.0593,-0.0599,-0.0802,-0.0823,-0.0878,-0.0892,-0.0886,-0.0921,-0.0923,-0.1101,-0.1101,0,0,0,-0.0517,-0.0545,-0.0549,-0.0632,-0.0632,-0.0595,-0.0602,-0.0814,-0.0809,-0.0894,-0.0889,-0.0922,-0.0926,-0.1101,-0.1101,-0.1002,0,0,0,-0.0516,-0.0519,-0.0546,-0.0547,-0.0626,-0.0708,-0.0611,-0.0796,-0.0817,-0.0888,-0.0923,-0.0928,-0.1101,-0.1101,-0.1004,-0.0953,0,0,0,-0.05,-0.0518,-0.0519,-0.0545,-0.0571,-0.0704,-0.0713,-0.08,-0.0814,-0.0919,-0.0929,-0.1101,-0.1101,-0.1007,-0.0958,-0.0921,0,0,0,-0.0505,-0.0498,-0.0519,-0.0523,-0.0569,-0.0612,-0.0711,-0.0784,-0.0865,-0.0924,-0.1101,-0.1101,-0.1007,-0.0961,-0.0924,-0.0861,0,0,0,-0.0492,-0.0497,-0.0497,-0.0517,-0.0534,-0.0601,-0.0635,-0.0784,-0.0896,-0.105,-0.1054,-0.1003,-0.0958,-0.0921,-0.087,0,0,0,0,-0.0491,-0.0494,-0.0503,-0.0523,-0.0555,-0.0596,-0.0705,-0.0758,-0.0902,-0.0937,-0.1034,-0.1009,-0.0988,-0.0963,-0.1102,-0.1102,-0.1102,-0.1102,-0.1102,-0.0486,-0.0494,-0.0497,-0.0512,-0.0539,-0.0607,-0.0645,-0.075,-0.0858,-0.0901,-0.095,-0.0884,-0.0856,-0.0982,-0.0982,-0.0981,-0.0981,-0.0981,-0.098,-0.0469,-0.0466,-0.0484,-0.0491,-0.0521,-0.0561,-0.063,-0.069,-0.077,-0.087,-0.0856,-0.0888,-0.0971,-0.0973,-0.0975,-0.0976,-0.0976,-0.0977,-0.0977,-0.0472,-0.0461,-0.0471,-0.0467,-0.0497,-0.054,-0.0564,-0.0639,-0.0702,-0.0697,-0.0718,-0.0823,-0.0805,-0.0718,-0.0717,-0.0717,-0.0717,-0.0716,-0.0716,-0.0456,-0.0455,-0.0454,-0.0449,-0.0465,-0.0494,-0.055,-0.0559,-0.0609,-0.06,-0.0693,-0.0796,-0.0805,-0.0792,-0.071,-0.0711,-0.0712,-0.0712,-0.0713,-0.0439,-0.0441,-0.0431,-0.0441,-0.0455,-0.0467,-0.0508,-0.0475,-0.0462,-0.043,-0.0547,-0.0557,-0.0587,-0.0601,-0.0583,-0.0435,-0.0434,-0.0433,0,-0.0427,-0.0425,-0.0425,-0.0436,-0.0432,-0.0464,-0.0417,-0.0409,-0.0414,-0.0411,-0.0488,-0.0625,-0.0631,-0.0675,-0.0685,-0.0668,0,0,0,-0.041,-0.0419,-0.0422,-0.0432,-0.0438,-0.0407,-0.0407,-0.0381,-0.041,-0.0344,-0.0404,-0.0411,-0.0605,-0.0692,-0.0763,-0.0774,-0.0758,0,0]},{"header":{"parameterUnit":"m.s-1","parameterCategory":2,"la1":30.2992,"la2":30.254,"lo1":-89.0895,"lo2":-89.0443,"dy":0.0025,"dx":0.0025,"nx":19,"ny":19,"refTime":"2026-05-13T03:00:00:Z","depth":"4","parameterNumber":3,"parameterNumberName":"V-component_of_CURRENTS"},"data":[0,0,0,-0.035,-0.0352,-0.0456,-0.0456,-0.0544,-0.0545,0,0,0,0,0,0,0,0,0,0,0,-0.0312,-0.0312,-0.035,-0.0352,-0.0456,-0.0456,-0.0544,-0.0545,0,0,0,0,0,0,0,0,0,0,0,-0.0311,-0.0312,-0.0313,-0.0353,-0.0456,-0.0456,-0.0544,-0.0477,0,0,0,0,0,0,0,0,0,0,-0.0382,-0.035,-0.0312,-0.0313,-0.0353,-0.0456,-0.0456,-0.0474,-0.0481,-0.0484,0,-0.0503,0,-0.0527,-0.055,-0.055,0,0,0,-0.0352,-0.0344,-0.0376,-0.0313,-0.0354,-0.0455,-0.0409,-0.0478,-0.0486,-0.0493,-0.0504,-0.0508,-0.0528,-0.055,-0.055,-0.0601,-0.0601,0,0,-0.0346,-0.0327,-0.0371,-0.0381,-0.0384,-0.0406,-0.0412,-0.0483,-0.0489,-0.0505,-0.0511,-0.053,-0.0551,-0.0551,-0.0601,-0.0601,0,0,0,-0.033,-0.0323,-0.0353,-0.0376,-0.04,-0.0409,-0.0416,-0.0486,-0.0498,-0.0512,-0.0531,-0.0551,-0.0552,-0.0601,-0.0601,-0.0599,0,0,0,-0.0327,-0.0313,-0.0351,-0.0339,-0.0399,-0.045,-0.0417,-0.0493,-0.0502,-0.053,-0.0551,-0.0553,-0.0601,-0.0601,-0.0599,-0.0581,0,0,0,-0.0306,-0.0311,-0.0325,-0.0338,-0.0384,-0.0449,-0.0465,-0.0495,-0.0513,-0.055,-0.0553,-0.0601,-0.0601,-0.0599,-0.0582,-0.0536,0,0,0,-0.028,-0.0311,-0.0324,-0.037,-0.0383,-0.0458,-0.0465,-0.0528,-0.0564,-0.0551,-0.0601,-0.0601,-0.0599,-0.0582,-0.0537,-0.0376,0,0,0,-0.0305,-0.0313,-0.0342,-0.0358,-0.0426,-0.0444,-0.0498,-0.0548,-0.0559,-0.0575,-0.0576,-0.0599,-0.0582,-0.0536,-0.0379,0,0,0,0,-0.0342,-0.0358,-0.0383,-0.0427,-0.0479,-0.0501,-0.0552,-0.0562,-0.0585,-0.058,-0.06,-0.0589,-0.056,-0.047,-0.0601,-0.0601,-0.0601,-0.0601,-0.0601,-0.0332,-0.0372,-0.0415,-0.0461,-0.0502,-0.055,-0.0564,-0.0578,-0.06,-0.0603,-0.0589,-0.0553,-0.046,-0.0599,-0.0599,-0.0599,-0.0599,-0.0599,-0.0599,-0.0357,-0.0384,-0.042,-0.0476,-0.0505,-0.0546,-0.0567,-0.0577,-0.0564,-0.0588,-0.056,-0.0477,-0.0599,-0.0599,-0.0599,-0.0599,-0.0599,-0.0599,-0.0599,-0.0348,-0.0365,-0.0398,-0.0455,-0.0489,-0.0529,-0.0501,-0.0531,-0.0543,-0.0529,-0.0401,-0.0532,-0.0528,-0.0506,-0.0505,-0.0505,-0.0505,-0.0505,-0.0505,-0.0325,-0.0356,-0.0382,-0.0431,-0.0454,-0.0463,-0.046,-0.042,-0.0436,-0.0361,-0.051,-0.052,-0.0524,-0.0521,-0.05,-0.0501,-0.0502,-0.0502,-0.0502,-0.0332,-0.0333,-0.0364,-0.0385,-0.0411,-0.0392,-0.0389,-0.0248,-0.0191,-0.0126,-0.0261,-0.0274,-0.0248,-0.0257,-0.0244,-0.0141,-0.0138,-0.0136,0,-0.0321,-0.0327,-0.0352,-0.0361,-0.0341,-0.0351,-0.0183,-0.0122,-0.0113,-0.0115,-0.0256,-0.042,-0.0425,-0.041,-0.0414,-0.0405,0,0,0,-0.0321,-0.0326,-0.0333,-0.0342,-0.0317,-0.0188,-0.0135,-0.006,-0.0127,0.004,-0.0081,-0.0095,-0.032,-0.0488,-0.0478,-0.0482,-0.0476,0,0]}]]